This is the latest recevied weather packets stored in our database for station/object K5SVV. If no packets are shown the sender has not sent any weather packets the latest 10 day(s).
| Time | Temp. | Humidity | Pressure | Rain* | Wind** | Luminosity | Snow |
|---|---|---|---|---|---|---|---|
| 1778032526 | 25.56° C | 84% | 1005 hPa | 0 mm | - | 0 W/m² | - |
| 1778032222 | 25.56° C | 84% | 1005 hPa | 0 mm | - | 0 W/m² | - |
| 1778031920 | 25.56° C | 84% | 1005.1 hPa | 0 mm | - | 0 W/m² | - |
| 1778031615 | 25.56° C | 83% | 1005.1 hPa | 0 mm | - | 0 W/m² | - |
| 1778031314 | 25.56° C | 83% | 1004.9 hPa | 0 mm | - | 0 W/m² | - |
| 1778031010 | 25.56° C | 83% | 1004.7 hPa | 0 mm | - | 0 W/m² | - |
| 1778030706 | 26.11° C | 83% | 1004.8 hPa | 0 mm | - | 0 W/m² | - |
| 1778030403 | 26.11° C | 82% | 1004.4 hPa | 0 mm | - | 0 W/m² | - |
| 1778030101 | 26.11° C | 82% | 1004.6 hPa | 0 mm | - | 0 W/m² | - |
| 1778029797 | 26.11° C | 82% | 1004.2 hPa | 0 mm | - | 0 W/m² | - |
| 1778029496 | 26.11° C | 82% | 1003.9 hPa | 0 mm | - | 1 W/m² | - |
| 1778029192 | 26.11° C | 82% | 1004.1 hPa | 0 mm | - | 2 W/m² | - |
| 1778028889 | 26.11° C | 82% | 1004.1 hPa | 0 mm | - | 6 W/m² | - |
| 1778028585 | 26.11° C | 82% | 1004.1 hPa | 0 mm | - | 10 W/m² | - |
| 1778028283 | 26.67° C | 81% | 1004.2 hPa | 0 mm | - | 14 W/m² | - |
| 1778027979 | 26.67° C | 81% | 1004.3 hPa | 0 mm | - | 15 W/m² | - |
| 1778027676 | 26.67° C | 81% | 1004.2 hPa | 0 mm | - | 25 W/m² | - |
| 1778027372 | 26.67° C | 81% | 1004.2 hPa | 0 mm | - | 36 W/m² | - |
| 1778027068 | 27.22° C | 80% | 1004 hPa | 0 mm | - | 44 W/m² | - |
| 1778026763 | 27.22° C | 80% | 1004.1 hPa | 0 mm | - | 56 W/m² | - |
| 1778026461 | 27.22° C | 80% | 1003.9 hPa | 0 mm | - | 53 W/m² | - |
| 1778026158 | 27.22° C | 80% | 1003.8 hPa | 0 mm | - | 61 W/m² | - |
| 1778025856 | 27.22° C | 80% | 1004 hPa | 0 mm | - | 74 W/m² | - |
| 1778025552 | 27.22° C | 80% | 1003.9 hPa | 0 mm | - | 93 W/m² | - |
| 1778025250 | 27.22° C | 80% | 1004.2 hPa | 0 mm | - | 83 W/m² | - |
* Rain latest hour (hover to see other rain measurements)
** Current wind speed in m/s (hover to see current wind gust speed)